When you browse on this site, cookies collect data to enhance your experience and personalize the content and advertising you see.
Visit our Privacy Policy to learn more. By continuing to use the site, you agree to this use of cookies and data.
  • In Hungary
  • List of Countries
  • For 7 days
  • Water Temperature
  • Weather Map
  • News
  • Weather Widgets
  • user-avatar
    Login

    Hourly Weather Neunkirchen

    Today, 8 April, Wednesday

    Time Temperature Precipitation Wind Pressure Humidity
    00:00 +7°C° 0 mm 2 mps 740 mmHg 49%
    01:00 +6°C° 0 mm 2 mps 740 mmHg 53%
    02:00 +6°C° 0 mm 2 mps 740 mmHg 54%
    03:00 +6°C° 0 mm 2 mps 740 mmHg 54%
    04:00 +5°C° 0 mm 2 mps 739 mmHg 54%
    05:00 +6°C° 0 mm 2 mps 740 mmHg 52%
    06:00 +7°C° 0 mm 2 mps 740 mmHg 49%
    07:00 +9°C° 0 mm 2 mps 740 mmHg 45%
    08:00 +11°C° 0 mm 3 mps 740 mmHg 38%
    09:00 +13°C° 0 mm 3 mps 739 mmHg 32%
    10:00 +17°C° 0 mm 4 mps 739 mmHg 26%
    11:00 +17°C° 0 mm 4 mps 739 mmHg 26%
    12:00 +18°C° 0 mm 4 mps 738 mmHg 26%
    13:00 +19°C° 0 mm 4 mps 738 mmHg 25%
    14:00 +19°C° 0 mm 4 mps 737 mmHg 27%
    15:00 +18°C° 0 mm 4 mps 737 mmHg 29%
    16:00 +18°C° 0 mm 4 mps 736 mmHg 31%
    17:00 +16°C° 0 mm 3 mps 736 mmHg 38%
    18:00 +12°C° 0 mm 3 mps 736 mmHg 46%
    19:00 +10°C° 0 mm 2 mps 736 mmHg 53%
    20:00 +9°C° 0 mm 2 mps 736 mmHg 54%
    21:00 +9°C° 0 mm 2 mps 736 mmHg 54%
    22:00 +8°C° 0 mm 2 mps 736 mmHg 55%
    23:00 +8°C° 0 mm 2 mps 736 mmHg 56%

    Tomorrow, 9 April, Thursday

    Time Temperature Precipitation Wind Pressure Humidity
    00:00 +8°C° 0 mm 2 mps 736 mmHg 57%
    01:00 +7°C° 0 mm 2 mps 735 mmHg 57%
    02:00 +7°C° 0 mm 2 mps 735 mmHg 57%
    03:00 +7°C° 0 mm 2 mps 735 mmHg 58%
    04:00 +7°C° 0 mm 2 mps 734 mmHg 58%
    05:00 +9°C° 0 mm 1 mps 735 mmHg 56%
    06:00 +10°C° 0 mm 1 mps 735 mmHg 53%
    07:00 +11°C° 0 mm 1 mps 735 mmHg 51%
    08:00 +14°C° 0 mm 1 mps 735 mmHg 45%
    09:00 +16°C° 0 mm 1 mps 735 mmHg 40%
    10:00 +20°C° 0 mm 1 mps 735 mmHg 34%
    11:00 +21°C° 0 mm 1 mps 735 mmHg 33%
    12:00 +20°C° 0 mm 2 mps 734 mmHg 33%
    13:00 +21°C° 0 mm 2 mps 734 mmHg 32%
    14:00 +21°C° 0 mm 2 mps 734 mmHg 33%
    15:00 +21°C° 0 mm 2 mps 733 mmHg 35%
    16:00 +21°C° 0 mm 2 mps 733 mmHg 36%
    17:00 +18°C° 0 mm 2 mps 733 mmHg 44%
    18:00 +16°C° 0 mm 2 mps 733 mmHg 53%
    19:00 +14°C° 0 mm 1 mps 733 mmHg 61%
    20:00 +13°C° 0 mm 1 mps 734 mmHg 63%
    21:00 +13°C° 0 mm 1 mps 734 mmHg 66%
    22:00 +12°C° 0 mm 1 mps 735 mmHg 68%
    23:00 +12°C° 0 mm 1 mps 735 mmHg 70%

    Day after tomorrow, 10 April, Friday

    Time Temperature Precipitation Wind Pressure Humidity
    00:00 +12°C° 0 mm 2 mps 734 mmHg 72%
    01:00 +10°C° 0 mm 2 mps 734 mmHg 73%
    02:00 +10°C° 0 mm 2 mps 735 mmHg 76%
    03:00 +10°C° 0 mm 2 mps 735 mmHg 79%
    04:00 +9°C° 0 mm 2 mps 735 mmHg 82%
    05:00 +10°C° 0 mm 2 mps 735 mmHg 79%
    06:00 +12°C° 0 mm 1 mps 735 mmHg 77%
    07:00 +13°C° 0 mm 1 mps 735 mmHg 75%
    08:00 +14°C° 0 mm 2 mps 735 mmHg 70%
    09:00 +15°C° 0 mm 2 mps 735 mmHg 65%
    10:00 +16°C° 0 mm 2 mps 735 mmHg 60%
    11:00 +17°C° 0.1 mm 2 mps 735 mmHg 58%
    12:00 +18°C° 0.1 mm 2 mps 735 mmHg 56%
    13:00 +18°C° 0.1 mm 2 mps 735 mmHg 53%
    14:00 +18°C° 0.1 mm 2 mps 735 mmHg 56%
    15:00 +17°C° 0.1 mm 2 mps 734 mmHg 58%
    16:00 +17°C° 0.1 mm 2 mps 733 mmHg 60%
    17:00 +15°C° 0 mm 1 mps 734 mmHg 66%
    18:00 +14°C° 0 mm 1 mps 734 mmHg 72%
    19:00 +13°C° 0 mm 1 mps 734 mmHg 78%
    20:00 +11°C° 0 mm 0 mps 734 mmHg 77%
    21:00 +11°C° 0 mm 0 mps 734 mmHg 77%
    22:00 +11°C° 0 mm 0 mps 735 mmHg 76%
    23:00 +10°C° 0 mm 0 mps 735 mmHg 78%

    11 April, Saturday

    Time Temperature Precipitation Wind Pressure Humidity
    00:00 +10°C° 0 mm 0 mps 734 mmHg 80%
    01:00 +9°C° 0 mm 0 mps 734 mmHg 83%
    02:00 +9°C° 0 mm 0 mps 734 mmHg 82%
    03:00 +9°C° 0 mm 0 mps 735 mmHg 81%
    04:00 +9°C° 0 mm 0 mps 735 mmHg 80%
    05:00 +10°C° 0 mm 0 mps 735 mmHg 78%
    06:00 +10°C° 0 mm 0 mps 735 mmHg 75%
    07:00 +10°C° 0 mm 0 mps 735 mmHg 73%
    08:00 +13°C° 0 mm 1 mps 735 mmHg 68%
    09:00 +14°C° 0 mm 1 mps 735 mmHg 62%
    10:00 +15°C° 0 mm 1 mps 735 mmHg 57%
    11:00 +15°C° 0 mm 1 mps 735 mmHg 55%
    12:00 +16°C° 0 mm 1 mps 735 mmHg 54%
    13:00 +17°C° 0 mm 2 mps 734 mmHg 52%
    14:00 +18°C° 0 mm 1 mps 734 mmHg 52%
    15:00 +18°C° 0 mm 1 mps 734 mmHg 52%
    16:00 +18°C° 0 mm 1 mps 733 mmHg 52%
    17:00 +15°C° 0 mm 1 mps 733 mmHg 59%
    18:00 +13°C° 0 mm 1 mps 733 mmHg 66%
    19:00 +11°C° 0 mm 1 mps 733 mmHg 73%
    20:00 +11°C° 0 mm 1 mps 733 mmHg 75%
    21:00 +11°C° 0 mm 1 mps 734 mmHg 76%
    22:00 +10°C° 0 mm 1 mps 734 mmHg 78%
    23:00 +10°C° 0 mm 1 mps 734 mmHg 80%

    12 April, Sunday

    Time Temperature Precipitation Wind Pressure Humidity
    00:00 +10°C° 0 mm 1 mps 734 mmHg 81%
    01:00 +9°C° 0 mm 1 mps 733 mmHg 82%
    02:00 +9°C° 0 mm 1 mps 733 mmHg 83%
    03:00 +9°C° 0 mm 1 mps 733 mmHg 84%
    04:00 +8°C° 0 mm 1 mps 733 mmHg 84%
    05:00 +9°C° 0 mm 1 mps 733 mmHg 81%
    06:00 +10°C° 0 mm 1 mps 733 mmHg 77%
    07:00 +12°C° 0 mm 1 mps 733 mmHg 74%
    08:00 +14°C° 0 mm 2 mps 732 mmHg 67%
    09:00 +16°C° 0 mm 2 mps 732 mmHg 61%
    10:00 +18°C° 0 mm 2 mps 732 mmHg 55%
    11:00 +19°C° 0.1 mm 3 mps 731 mmHg 53%
    12:00 +20°C° 0.1 mm 3 mps 731 mmHg 52%
    13:00 +21°C° 0.1 mm 3 mps 731 mmHg 51%
    14:00 +20°C° 0.4 mm 3 mps 730 mmHg 55%
    15:00 +20°C° 0.4 mm 3 mps 729 mmHg 59%
    16:00 +19°C° 0.4 mm 2 mps 729 mmHg 63%
    17:00 +18°C° 0.2 mm 2 mps 728 mmHg 68%
    18:00 +16°C° 0.2 mm 2 mps 728 mmHg 73%
    19:00 +15°C° 0.2 mm 2 mps 728 mmHg 79%
    20:00 +14°C° 0.1 mm 2 mps 728 mmHg 80%
    21:00 +14°C° 0.1 mm 1 mps 728 mmHg 82%
    22:00 +13°C° 0.1 mm 1 mps 728 mmHg 84%
    23:00 +13°C° 0.1 mm 1 mps 727 mmHg 84%

    13 April, Monday

    Time Temperature Precipitation Wind Pressure Humidity
    00:00 +13°C° 0.1 mm 1 mps 727 mmHg 84%
    01:00 +13°C° 0.1 mm 1 mps 727 mmHg 84%
    02:00 +13°C° 0 mm 2 mps 727 mmHg 83%
    03:00 +13°C° 0 mm 2 mps 727 mmHg 82%
    04:00 +13°C° 0 mm 2 mps 727 mmHg 81%
    05:00 +13°C° 0 mm 2 mps 727 mmHg 81%
    06:00 +13°C° 0 mm 2 mps 727 mmHg 81%
    07:00 +14°C° 0 mm 2 mps 727 mmHg 80%
    08:00 +15°C° 0.3 mm 2 mps 727 mmHg 74%
    09:00 +16°C° 0.3 mm 3 mps 727 mmHg 69%
    10:00 +17°C° 0.3 mm 3 mps 727 mmHg 63%
    11:00 +17°C° 0.4 mm 3 mps 727 mmHg 61%
    12:00 +18°C° 0.4 mm 4 mps 727 mmHg 60%
    13:00 +18°C° 0.4 mm 4 mps 726 mmHg 58%
    14:00 +18°C° 0.5 mm 4 mps 726 mmHg 62%
    15:00 +17°C° 0.5 mm 4 mps 726 mmHg 66%
    16:00 +15°C° 0.5 mm 4 mps 726 mmHg 69%
    17:00 +14°C° 1 mm 4 mps 727 mmHg 73%
    18:00 +12°C° 1 mm 4 mps 727 mmHg 77%
    19:00 +11°C° 1 mm 4 mps 728 mmHg 81%
    20:00 +10°C° 0 mm 4 mps 728 mmHg 82%
    21:00 +8°C° 0 mm 4 mps 729 mmHg 83%
    22:00 +7°C° 0 mm 4 mps 730 mmHg 83%
    23:00 +6°C° 0 mm 5 mps 731 mmHg 82%
    Show more